• In Deutschland
  • Länderverzeichnis
  • Für 7 Tage
  • Wassertemperatur
  • Satellitenkarten
  • Wetterkarte
  • Widgets
  • user-avatar
    Anmelden

    Stündliche Wetter Mayrhofen

    Heute, 25 April, Dienstag

    Zeit Temperatur Niederschläge Wind Luftdruck Luftfeuchtigkeit
    00:00 +1°C° 0 mm 2 m/S 613 mmHg 96%
    01:00 0°C° 0 mm 3 m/S 613 mmHg 96%
    02:00 +1°C° 0 mm 2 m/S 612 mmHg 96%
    03:00 -1°C° 0 mm 2 m/S 612 mmHg 96%
    04:00 -1°C° 0 mm 2 m/S 612 mmHg 96%
    05:00 +1°C° 0 mm 2 m/S 612 mmHg 95%
    06:00 +1°C° 0 mm 2 m/S 612 mmHg 94%
    07:00 +3°C° 0 mm 2 m/S 612 mmHg 92%
    08:00 +4°C° 0,1 mm 2 m/S 612 mmHg 89%
    09:00 +5°C° 0,1 mm 2 m/S 613 mmHg 87%
    10:00 +6°C° 0,1 mm 2 m/S 613 mmHg 85%
    11:00 +7°C° 0,5 mm 2 m/S 613 mmHg 84%
    12:00 +7°C° 0,5 mm 2 m/S 613 mmHg 84%
    13:00 +7°C° 0,5 mm 2 m/S 613 mmHg 83%
    14:00 +7°C° 0,9 mm 2 m/S 612 mmHg 85%
    15:00 +7°C° 0,9 mm 2 m/S 612 mmHg 86%
    16:00 +6°C° 0,9 mm 2 m/S 611 mmHg 87%
    17:00 +5°C° 0,9 mm 2 m/S 611 mmHg 90%
    18:00 +4°C° 0,9 mm 2 m/S 610 mmHg 93%
    19:00 +3°C° 0,9 mm 2 m/S 610 mmHg 96%
    20:00 +3°C° 1 mm 2 m/S 610 mmHg 96%
    21:00 +2°C° 1 mm 2 m/S 610 mmHg 97%
    22:00 +2°C° 1 mm 2 m/S 610 mmHg 98%
    23:00 +2°C° 0,4 mm 2 m/S 610 mmHg 98%

    Morgen, 26 April, Mittwoch

    Zeit Temperatur Niederschläge Wind Luftdruck Luftfeuchtigkeit
    00:00 +2°C° 0,4 mm 2 m/S 609 mmHg 98%
    01:00 +2°C° 0,4 mm 2 m/S 609 mmHg 98%
    02:00 +1°C° 0,4 mm 2 m/S 609 mmHg 98%
    03:00 +1°C° 0,4 mm 2 m/S 609 mmHg 97%
    04:00 +1°C° 0,4 mm 2 m/S 609 mmHg 97%
    05:00 +1°C° 0,7 mm 2 m/S 609 mmHg 97%
    06:00 +1°C° 0,7 mm 2 m/S 609 mmHg 97%
    07:00 +1°C° 0,7 mm 2 m/S 609 mmHg 96%
    08:00 +2°C° 1,1 mm 2 m/S 609 mmHg 96%
    09:00 +2°C° 1,1 mm 2 m/S 609 mmHg 95%
    10:00 +2°C° 1,1 mm 2 m/S 609 mmHg 95%
    11:00 +2°C° 1,4 mm 2 m/S 610 mmHg 94%
    12:00 +2°C° 1,4 mm 2 m/S 610 mmHg 94%
    13:00 +3°C° 1,4 mm 2 m/S 610 mmHg 94%
    14:00 +2°C° 1,8 mm 2 m/S 610 mmHg 95%
    15:00 +2°C° 1,8 mm 2 m/S 609 mmHg 96%
    16:00 +3°C° 1,8 mm 1 m/S 609 mmHg 97%
    17:00 +2°C° 2,1 mm 1 m/S 609 mmHg 97%
    18:00 +2°C° 2,1 mm 1 m/S 609 mmHg 97%
    19:00 +1°C° 2,1 mm 1 m/S 609 mmHg 98%
    20:00 +1°C° 2,3 mm 1 m/S 609 mmHg 98%
    21:00 0°C° 2,3 mm 1 m/S 609 mmHg 98%
    22:00 0°C° 2,3 mm 1 m/S 609 mmHg 98%
    23:00 -1°C° 2,5 mm 1 m/S 609 mmHg 98%

    übermorgen, 27 April, Donnerstag

    Zeit Temperatur Niederschläge Wind Luftdruck Luftfeuchtigkeit
    00:00 -1°C° 2,5 mm 1 m/S 609 mmHg 98%
    01:00 -1°C° 2,5 mm 1 m/S 609 mmHg 98%
    02:00 -2°C° 0,6 mm 1 m/S 609 mmHg 98%
    03:00 -2°C° 0,6 mm 1 m/S 609 mmHg 97%
    04:00 -2°C° 0,6 mm 1 m/S 609 mmHg 97%
    05:00 -1°C° 0,2 mm 1 m/S 609 mmHg 97%
    06:00 -1°C° 0,2 mm 1 m/S 609 mmHg 97%
    07:00 0°C° 0,2 mm 1 m/S 610 mmHg 97%
    08:00 +1°C° 0,4 mm 1 m/S 610 mmHg 97%
    09:00 +1°C° 0,4 mm 1 m/S 610 mmHg 96%
    10:00 +2°C° 0,4 mm 1 m/S 611 mmHg 96%
    11:00 +2°C° 1,3 mm 1 m/S 611 mmHg 96%
    12:00 +2°C° 1,3 mm 1 m/S 611 mmHg 96%
    13:00 +2°C° 1,3 mm 1 m/S 610 mmHg 96%
    14:00 +1°C° 1,7 mm 2 m/S 610 mmHg 96%
    15:00 +1°C° 1,7 mm 2 m/S 610 mmHg 96%
    16:00 -1°C° 1,7 mm 2 m/S 610 mmHg 97%
    17:00 -1°C° 1,7 mm 2 m/S 610 mmHg 97%
    18:00 -2°C° 1,7 mm 2 m/S 610 mmHg 97%
    19:00 -2°C° 1,7 mm 2 m/S 609 mmHg 98%
    20:00 -2°C° 1,7 mm 2 m/S 609 mmHg 98%
    21:00 -3°C° 1,7 mm 2 m/S 609 mmHg 98%
    22:00 -3°C° 1,7 mm 2 m/S 609 mmHg 98%
    23:00 -3°C° 1,2 mm 2 m/S 609 mmHg 98%

    28 April, Freitag

    Zeit Temperatur Niederschläge Wind Luftdruck Luftfeuchtigkeit
    00:00 -3°C° 1,2 mm 2 m/S 609 mmHg 98%
    01:00 -1°C° 1,2 mm 1 m/S 609 mmHg 98%
    02:00 -2°C° 0,9 mm 1 m/S 608 mmHg 98%
    03:00 -2°C° 0,9 mm 1 m/S 608 mmHg 98%
    04:00 -4°C° 0,9 mm 2 m/S 608 mmHg 98%
    05:00 -4°C° 1,3 mm 2 m/S 608 mmHg 97%
    06:00 -4°C° 1,3 mm 2 m/S 608 mmHg 97%
    07:00 -4°C° 1,3 mm 2 m/S 608 mmHg 97%
    08:00 -4°C° 1,3 mm 2 m/S 608 mmHg 97%
    09:00 -4°C° 1,3 mm 2 m/S 609 mmHg 96%
    10:00 -3°C° 1,3 mm 2 m/S 609 mmHg 96%
    11:00 -3°C° 1,1 mm 2 m/S 609 mmHg 96%
    12:00 -3°C° 1,1 mm 2 m/S 609 mmHg 96%
    13:00 -3°C° 1,1 mm 2 m/S 610 mmHg 96%
    14:00 -3°C° 0,6 mm 2 m/S 610 mmHg 96%
    15:00 -3°C° 0,6 mm 2 m/S 610 mmHg 95%
    16:00 -3°C° 0,6 mm 2 m/S 610 mmHg 95%
    17:00 -4°C° 0,3 mm 2 m/S 610 mmHg 95%
    18:00 -4°C° 0,3 mm 2 m/S 611 mmHg 96%
    19:00 -5°C° 0,3 mm 2 m/S 611 mmHg 96%
    20:00 -6°C° 0,1 mm 2 m/S 611 mmHg 96%
    21:00 -7°C° 0,1 mm 2 m/S 611 mmHg 96%
    22:00 -7°C° 0,1 mm 2 m/S 611 mmHg 96%
    23:00 -8°C° 0,1 mm 2 m/S 611 mmHg 95%

    29 April, Samstag

    Zeit Temperatur Niederschläge Wind Luftdruck Luftfeuchtigkeit
    00:00 -9°C° 0,1 mm 2 m/S 611 mmHg 95%
    01:00 -8°C° 0,1 mm 1 m/S 611 mmHg 95%
    02:00 -10°C° 0 mm 1 m/S 611 mmHg 95%
    03:00 -11°C° 0 mm 1 m/S 610 mmHg 95%
    04:00 -12°C° 0 mm 1 m/S 609 mmHg 95%
    05:00 -10°C° 0 mm 1 m/S 611 mmHg 94%
    06:00 -8°C° 0 mm 1 m/S 612 mmHg 94%
    07:00 -4°C° 0 mm 1 m/S 613 mmHg 93%
    08:00 -2°C° 0 mm 1 m/S 613 mmHg 93%
    09:00 -2°C° 0 mm 0 m/S 614 mmHg 93%
    10:00 0°C° 0 mm 0 m/S 614 mmHg 92%
    11:00 +1°C° 0 mm 0 m/S 614 mmHg 93%
    12:00 +2°C° 0 mm 1 m/S 614 mmHg 93%
    13:00 +2°C° 0 mm 1 m/S 614 mmHg 93%
    14:00 +3°C° 0 mm 1 m/S 614 mmHg 93%
    15:00 +3°C° 0 mm 1 m/S 614 mmHg 93%
    16:00 +3°C° 0 mm 1 m/S 614 mmHg 93%
    17:00 +2°C° 0 mm 1 m/S 613 mmHg 94%
    18:00 0°C° 0 mm 1 m/S 613 mmHg 95%
    19:00 -1°C° 0 mm 1 m/S 612 mmHg 96%
    20:00 -2°C° 0 mm 1 m/S 612 mmHg 96%
    21:00 -4°C° 0 mm 2 m/S 612 mmHg 96%
    22:00 -5°C° 0 mm 2 m/S 612 mmHg 96%
    23:00 -5°C° 0 mm 2 m/S 612 mmHg 96%

    30 April, Sonntag

    Zeit Temperatur Niederschläge Wind Luftdruck Luftfeuchtigkeit
    00:00 -6°C° 0 mm 2 m/S 612 mmHg 96%
    01:00 -6°C° 0 mm 2 m/S 612 mmHg 96%
    02:00 -6°C° 0 mm 2 m/S 612 mmHg 96%
    03:00 -6°C° 0 mm 2 m/S 612 mmHg 96%
    04:00 -6°C° 0 mm 2 m/S 612 mmHg 96%
    05:00 -4°C° 0 mm 2 m/S 612 mmHg 95%
    06:00 -3°C° 0 mm 2 m/S 613 mmHg 94%
    07:00 -2°C° 0 mm 2 m/S 613 mmHg 94%
    08:00 +1°C° 0 mm 2 m/S 613 mmHg 93%
    09:00 +2°C° 0 mm 2 m/S 613 mmHg 93%
    10:00 +3°C° 0 mm 2 m/S 613 mmHg 92%
    11:00 +3°C° 0 mm 2 m/S 613 mmHg 91%
    12:00 +4°C° 0 mm 2 m/S 613 mmHg 91%
    13:00 +4°C° 0 mm 2 m/S 612 mmHg 90%
    14:00 +4°C° 0 mm 2 m/S 612 mmHg 90%
    15:00 +4°C° 0 mm 2 m/S 612 mmHg 90%
    16:00 +4°C° 0 mm 2 m/S 612 mmHg 90%
    17:00 +3°C° 0 mm 2 m/S 611 mmHg 91%
    18:00 +2°C° 0 mm 2 m/S 611 mmHg 93%
    19:00 +1°C° 0 mm 2 m/S 611 mmHg 95%
    20:00 +1°C° 0 mm 2 m/S 611 mmHg 95%
    21:00 +1°C° 0 mm 2 m/S 611 mmHg 96%
    22:00 -1°C° 0 mm 2 m/S 611 mmHg 96%
    23:00 -1°C° 0 mm 2 m/S 611 mmHg 96%
    Mehr zeigen